Regional Weather Roundup
Issued by NWS Jackson, KY

Home | Current Version | Previous Version | Graphics & Text | Print | Product List | Glossary On
Versions: 1 2 3 4 5 6 7 8 9 10 11 12 13 14 15 16 17 18 19 20 21 22 23 24 25 26 27 28 29 30 31 32 33 34 35 36 37 38 39 40 41 42 43 44 45 46 47 48 49
000
ASUS43 KJKL 260910
RWRJKL

EAST KENTUCKY HOURLY WEATHER ROUNDUP
NATIONAL WEATHER SERVICE JACKSON KY
500 AM EDT SUN APR 26 2015

NOTE: "FAIR" INDICATES FEW OR NO CLOUDS BELOW 12,000 FEET WITH
NO SIGNIFICANT WEATHER AND/OR OBSTRUCTIONS TO VISIBILITY.

* THESE REPORTS ARE NOT UNDER NWS QUALITY CONTROL AND MAY NOT
  REPORT WEATHER SUCH AS PRECIPITATION AND FOG.

KYZ079-080-083-085-087-088-110-112-115-119-120-261000
...EASTERN KENTUCKY...

CITY           SKY/WX    TMP DP  RH WIND       PRES   REMARKS
JACKSON        LGT RAIN  44  43  96 CALM      29.64R
LONDON         CLOUDY    53  49  86 N6        29.63R FOG
SOMERSET*      CLOUDY    46  46 100 N8        29.67R FOG
MONTICELLO*    CLOUDY    54  54 100 N10       29.67R FOG
MIDDLESBORO*   CLOUDY    58  58 100 CALM      29.61R
HARLAN APT*    CLOUDY    54  54 100 W3        29.60R
HAZARD APT*    DRIZZLE   46  46 100 N3        29.64R
BLACK MTN*       N/A     50  50 100 W1          N/A
PIKEVILLE APT* DRIZZLE   45  45 100 N7        29.63
BIG SANDY*     RAIN      44  44  99 N5        29.65R
MOREHEAD APT*  CLOUDY    43  41  93 NE6       29.69S
$$

KYZ035-036-041-042-044-050-067-078-099-261000
...CENTRAL KENTUCKY...

CITY           SKY/WX    TMP DP  RH WIND       PRES   REMARKS
MT STERLING*   RAIN      43  43 100 NE9       29.69R
FLEMING/MASON* CLOUDY    43  41  93 N7        29.71R
DANVILLE*      CLOUDY    43  43 100 NE9       29.69R FOG
RICHMOND*      CLOUDY    45  43  93 N7        29.67R
LEXINGTON      CLOUDY    43  42  97 NE10      29.68R
FRANKFORT      CLOUDY    44  41  89 NE5       29.68S
$$

KYZ091>093-OHZ055-061-077-WVZ005-015-034-035-042-261000
...SOUTHERN OHIO/WEST VIRGINIA...

CITY           SKY/WX    TMP DP  RH WIND       PRES   REMARKS
COVINGTON      CLOUDY    43  35  73 N14       29.73R
COLUMBUS       CLOUDY    41  32  70 N8        29.72R
DAYTON         CLOUDY    42  32  67 N15       29.76R
WILMINGTON     MOCLDY    38  31  76 N9        29.72R WCI  31
HUNTINGTON     LGT RAIN  42  42 100 N5        29.66R
CHARLESTON     LGT RAIN  44  42  93 N6        29.64R
PINEVILLE*     RAIN      50  50 100 MISG      29.62R
BECKLEY        LGT RAIN  43  41  93 NE3       29.58R
BLUEFIELD      CLOUDY    47  43  86 E3        29.57R FOG
$$

VAZ002-007-008-TNZ017-027-036-066-071-261000
...SOUTHWEST VIRGINIA/EAST TENNESSEE...

CITY           SKY/WX    TMP DP  RH WIND       PRES   REMARKS
WISE*          CLOUDY    54  54 100 CALM      29.60R
JONESVILLE*    CLOUDY    57  57 100 W3        29.61R
ABINGDON*      CLOUDY    55  55 100 CALM      29.58R FOG
BRISTOL        CLOUDY    60  57  89 W7        29.58R
KNOXVILLE      CLOUDY    60  57  89 SW7       29.59R
OAK RIDGE      PTCLDY    59  57  93 CALM      29.61R
CROSSVILLE     PTCLDY    56  53  90 W3        29.63R
NASHVILLE      CLOUDY    61  59  93 W6        29.63R
$$

...KEY TO REMARKS...
VSB - VISIBILITY IN MILES
WCI - WIND CHILL INDEX
HX  - HEAT INDEX

$$



USA.gov is the U.S. government's official web portal to all federal, state and local government web resources and services.